If you wish to contribute or participate in the discussions about articles you are invited to join SKYbrary as a registered user

 Actions

Angel Albino Corzo International Airport

From SKYbrary Wiki

MMTG
Airport
ICAO: MMTG – IATA: TGZ
Summary
Name Angel Albino Corzo International Airport
Region South America and Caribbean
Territory Mexico MX.gif
Location Chiapa de Corzo, Chiapas
Serving Tuxtla Gutierrez
Elevation 456.895 m
1,499 ft
1,499 ft456.895 m
Type medium airport
Coordinates 16° 33' 42.56" N, 93° 1' 33.89" W
Runways
Designator Length Width Surface ROPS
9/27 0 m0 ft
0 m0 ft
UNK /
14/32 2500 m8,202.1 ft
45 m147.638 ft
ASP /
16/34 0 m0 ft
0 m0 ft
UNK /


METAR
Observation MMTG 202252Z 33004KT 10SM SCT025 SCT090 BKN300 26/21 A2989 RMK 8/463 CB DSNT ALQDS
Station Tuxtla Gutierrez, Chis.
Date/Time 20 August 2019 22:52:00
Wind direction 330°
Wind speed 04 kts
Lowest cloud amount scattered clouds
Temperature 26°C
Dew point 21°C
Humidity 74%
QNH hPa
Weather condition n/a

Ángel Albino Corzo International Airport, also known as Tuxtla Gutierrez International Airport, is an international airport serving the Mexican municipality of Chiapa de Corzo, Chiapas.

Climatology

Tropical savannah climate (Köppen climate classification Aw)

Maps

Terrain

Loading map...

Airport Layout

Loading map...


Accidents & Serious Incidents at or in vicinity of MMTG

None on SKYbrary